Tracking 23114 objects as of 16-May-2021
HD Live streaming from Space Station
objects crossing your sky now

SL-8 R/B

Track SL-8 R/B now!
10-day predictions


NORAD ID: 7686
Int'l Code: 1975-016J
Perigee: 1,464.5 km
Apogee: 1,725.7 km
Inclination: 74.0 °
Period: 117.9 minutes
Semi major axis: 7966 km
RCS: 6.1934 m2 (large)
Launch date: February 28, 1975
Source: Commonwealth of Independent States (former USSR) (CIS)
Launch site: PLESETSK MISSILE AND SPACE COMPLEX (PKMTR)

Note: This is a ROCKET BODY
aabbcc
Your satellite tracking list
Your tracking list is empty




NASA's NSSDC Master Catalog

Two Line Element Set (TLE):
1 07686U 75016J   21136.57964645  .00000040  00000-0  49406-3 0  9995
2 07686  74.0019 348.5577 0163938  43.9901  17.9426 12.21055338 59480
Source of the keplerian elements: AFSPC